CST,Max TemperatureF,Mean TemperatureF,Min TemperatureF,Max Dew PointF,MeanDew PointF,Min DewpointF,Max Humidity, Mean Humidity, Min Humidity, Max Sea Level PressureIn, Mean Sea Level PressureIn, Min Sea Level PressureIn, Max VisibilityMiles, Mean VisibilityMiles, Min VisibilityMiles, Max Wind SpeedMPH, Mean Wind SpeedMPH, Max Gust SpeedMPH,PrecipitationIn, CloudCover, Events, WindDirDegrees
2012-12-1,46,42,37,45,39,34,100,93,87,30.22,29.98,29.79,7,3,0,13,8,18,0.00,8,,183
2012-12-2,46,42,39,45,39,36,100,90,81,30.07,29.96,29.79,10,6,1,9,3,,0.00,8,,290
2012-12-3,57,48,39,57,46,37,100,93,71,30.06,29.81,29.60,10,4,0,16,9,26,0.04,7,,195
2012-12-4,46,35,24,39,23,9,81,57,38,30.30,30.00,29.78,10,10,8,16,9,25,0.04,1,,290
2012-12-5,33,26,19,28,19,10,87,72,54,30.44,30.35,30.19,10,10,10,12,5,18,0.00,4,,227
2012-12-6,39,36,32,36,33,28,93,82,70,30.19,29.93,29.81,10,10,7,21,9,30,0.00,7,,218
2012-12-7,35,32,28,30,24,21,87,74,60,30.02,29.97,29.86,10,10,10,8,5,,0.00,3,,355
2012-12-8,35,29,21,27,21,16,93,73,52,30.20,30.07,29.99,10,10,5,10,6,,0.00,3,,15
2012-12-9,33,27,21,34,27,16,100,85,65,30.19,30.00,29.75,10,6,1,21,10,28,0.02,7,,90
2012-12-10,28,24,21,25,22,19,100,85,74,29.90,29.80,29.72,10,9,2,13,8,18,0.00,7,,357
2012-12-11,26,24,21,25,20,16,100,85,69,30.02,29.89,29.82,10,10,6,18,5,23,0.00,8,,244
2012-12-12,37,26,15,28,21,10,93,79,65,30.21,30.12,30.03,10,9,7,20,6,25,0.00,5,,218
2012-12-13,37,32,26,28,25,19,86,70,52,30.12,30.06,30.00,10,10,10,16,10,22,0.00,1,,234
2012-12-14,35,27,19,34,26,18,100,89,74,30.25,30.18,30.08,10,9,0,13,6,20,0.00,6,,46
2012-12-15,42,38,35,39,36,34,100,92,81,30.07,29.79,29.52,10,6,2,20,11,25,0.51,7,,137
2012-12-16,42,38,35,39,37,34,100,95,87,29.63,29.55,29.51,10,6,0,7,2,,0.01,8,,293
2012-12-17,35,32,28,34,29,23,93,86,75,29.70,29.67,29.63,10,10,4,7,4,,0.00,8,,297
2012-12-18,32,28,23,25,22,21,93,78,64,29.81,29.74,29.70,10,10,10,7,2,,0.00,7,,351
2012-12-19,30,24,17,27,23,16,100,91,74,30.07,29.98,29.82,10,8,4,8,3,,0.00,3,,274
2012-12-20,33,30,28,34,30,27,100,94,87,29.98,29.60,29.39,8,3,1,37,13,62,0.06,8,,32
2012-12-21,32,24,17,30,22,12,100,83,74,30.10,29.87,29.49,10,9,2,24,16,32,0.00,7,,340
2012-12-22,24,19,14,18,15,10,100,83,64,30.11,30.03,29.91,10,10,10,10,5,,0.00,3,,264
2012-12-23,24,16,8,21,14,1,100,81,59,30.05,30.01,29.92,10,10,5,14,5,18,0.00,4,,334
2012-12-24,23,16,10,19,15,9,100,88,74,30.15,30.02,29.97,10,9,1,9,4,,0.00,7,,347
2012-12-25,24,17,10,18,12,9,100,80,64,30.40,30.31,30.15,10,10,10,13,6,17,0.00,2,,355
2012-12-26,26,17,8,21,15,7,93,82,64,30.36,30.25,30.17,10,10,10,14,9,17,0.00,5,,8
2012-12-27,24,22,19,21,17,16,86,78,69,30.23,30.20,30.16,10,10,10,14,8,20,0.00,8,,346
2012-12-28,26,20,15,25,19,14,100,89,69,30.16,30.07,29.94,10,8,2,10,5,,0.00,8,,15
2012-12-29,28,24,19,21,19,14,100,83,68,30.08,29.98,29.93,10,10,3,9,6,,0.00,7,,348
2012-12-30,21,18,15,18,12,9,93,76,63,30.21,30.10,29.90,10,9,7,10,6,16,0.00,4,,250
2012-12-31,24,14,3,18,10,-2,100,75,54,30.13,29.99,29.86,10,8,5,15,6,20,0.00,4,,303